Location: Estes Par
(40.3770°N, 105.5210°W)
Time: 16:17:56
(UTC-06:00)

Tiangong 1 - Pass Details

Date: 08 October 2017
Orbit: 293 x 320 km, 42.8° (Epoch: 18 October)

Event Time Altitude Azimuth Distance (km) Brightness Sun altitude
Rises 20:02:39 0° 273° (W) 2,026 6.5 -18.0°
Reaches altitude 10° 20:04:40 10° 280° (W) 1,192 4.8 -18.4°
Enters shadow 20:06:59 44° 333° (NNW) 432 1.5 -18.8°
